sat.trackr.live / text

‹ back to catalog

KUIPER-00246

NORAD 67151 · 2025-301U

PAYLOAD ACTIVE UNKNOWN

§ Identity

Operator
Country
US
Launch date
2025-12-16
Launch site
AFETR
Launch vehicle
Mass (kg)
RCS (m²)

External: N2YO · Heavens-Above · Gunter

§ Orbital elements

Epoch: 2026-05-25T00:46:53.927904Z

Period
97.30 min
Inclination
51.8995°
Eccentricity
0.0000917
Mean motion
14.79960331 rev/d
Perigee alt
628.8 km
Apogee alt
630.1 km
Semi-major
7,007.6 km
B*
4.3469e-4
RAAN
90.5206°
Arg perigee
70.3864°
Mean anomaly
289.7198°
Rev number
2,502

§ Raw data

KUIPER-002461 67151U 25301U   26145.03256861  .00003096  00000+0  43469-3 0  99962 67151  51.8995  90.5206 0000917  70.3864 289.7198 14.79960331 25022

JSON: /api/v1/satellites/67151 · /tle

For live sub-satellite position, see the globe view (requires WebGL).

§ Visibility from observer

Set your observer location to see the next 7 days of passes ≥ 10°. The values pass through the URL so the page stays shareable.

No JS? Fill the form by hand. The geolocation button needs JavaScript.